Date String (YYYY-MM-DD hh:mm:ss) UTC,Instrument flags,Ambient pressure (hPa),Sample flow (lpm),Bypass flow (lpm),Sample temperature (°C),Ambient temperature (°C),ASC tube jacket temperature (°C),LED temperature (°C),Box temperature (°C),Sample RH (%),Span deviation,Mass concentration (μg/m³),Mass concentration (μg/m³),Mass concentration (μg/m³)
DateTimeUTC,F1_M11,P_M11,Q1_M11,Q2_M11,T1_M11,T2_M11,T3_M11,T4_M11,T5_M11,U1_M11,ZSPAN_M11,X0_M11,X2_M11,X1_M11
2022-10-03 19:00:00,,0829.6,5.00,0.00,29.7,28.7,00.0,38.3,31.6,22.3,0000.0,0006.12,0003.51,0003.17
2022-10-03 19:01:00,,0829.5,5.00,0.00,29.7,28.7,00.0,38.3,31.7,21.9,0000.0,0006.86,0003.55,0003.19
2022-10-03 19:02:00,,0829.5,4.99,0.00,29.7,28.8,00.0,38.3,31.7,22.3,0000.0,0007.49,0003.58,0003.21
2022-10-03 19:03:00,,0829.5,5.02,0.00,29.8,28.9,00.0,38.4,31.7,22.0,0000.0,0007.38,0003.59,0003.24
2022-10-03 19:04:00,,0829.6,4.99,0.00,29.8,28.9,00.0,38.4,31.7,22.0,0000.0,0007.30,0003.61,0003.26
2022-10-03 19:05:00,,0829.5,5.00,0.00,29.8,28.1,00.0,38.4,31.7,21.5,0000.0,0007.37,0003.64,0003.28
2022-10-03 19:06:00,,0829.6,5.00,0.00,29.8,26.7,00.0,38.4,31.5,22.0,0000.0,0007.25,0003.64,0003.29
2022-10-03 19:07:00,,0829.5,5.01,0.00,29.7,26.4,00.0,38.3,31.4,21.9,0000.0,0007.08,0003.64,0003.29
2022-10-03 19:08:00,,0829.5,5.00,0.00,29.6,26.6,00.0,38.3,31.3,20.4,0000.0,0006.99,0003.60,0003.28
2022-10-03 19:09:00,,0829.5,4.99,0.00,29.6,26.9,00.0,38.3,31.3,21.0,0000.0,0007.45,0003.57,0003.26
2022-10-03 19:10:00,,0829.5,4.99,0.00,29.5,27.2,00.0,38.3,31.3,21.8,0000.0,0007.45,0003.55,0003.25
2022-10-03 19:11:00,,0829.5,4.99,0.00,29.5,27.5,00.0,38.3,31.3,21.9,0000.0,0007.53,0003.53,0003.24
2022-10-03 19:12:00,,0829.5,5.01,0.00,29.5,27.7,00.0,38.3,31.4,21.5,0000.0,0007.47,0003.54,0003.24
2022-10-03 19:13:00,,0829.5,5.00,0.00,29.6,27.9,00.0,38.2,31.4,21.4,0000.0,0006.38,0003.50,0003.21
2022-10-03 19:14:00,,0829.5,4.99,0.00,29.6,28.1,00.0,38.2,31.4,21.5,0000.0,0006.43,0003.50,0003.19
2022-10-03 19:15:00,,0829.5,5.01,0.00,29.6,28.3,00.0,38.3,31.5,21.3,0000.0,0006.42,0003.48,0003.18
2022-10-03 19:16:00,,0829.5,4.99,0.00,29.6,28.4,00.0,38.3,31.5,21.4,0000.0,0006.36,0003.47,0003.18
2022-10-03 19:17:00,,0829.5,5.01,0.00,29.7,28.6,00.0,38.3,31.6,21.6,0000.0,0006.67,0003.50,0003.20
2022-10-03 19:18:00,,0829.5,5.00,0.00,29.7,28.6,00.0,38.3,31.6,21.7,0000.0,0007.39,0003.51,0003.22
2022-10-03 19:19:00,,0829.5,5.00,0.00,29.7,28.7,00.0,38.3,31.7,22.2,0000.0,0007.72,0003.57,0003.25
2022-10-03 19:20:00,,0829.5,4.99,0.00,29.8,28.8,00.0,38.4,31.7,22.4,0000.0,0007.50,0003.61,0003.28
2022-10-03 19:21:00,,0829.5,5.00,0.00,29.8,28.0,00.0,38.4,31.7,22.7,0000.0,0007.54,0003.64,0003.33
2022-10-03 19:22:00,,0829.5,5.01,0.00,29.7,26.6,00.0,38.3,31.5,22.4,0000.0,0007.51,0003.68,0003.36
2022-10-03 19:23:00,,0829.5,5.01,0.00,29.7,26.2,00.0,38.3,31.4,22.0,0000.0,0007.52,0003.72,0003.42
2022-10-03 19:24:00,,0829.5,5.00,0.00,29.6,26.5,00.0,38.2,31.3,21.8,0000.0,0007.62,0003.79,0003.49
2022-10-03 19:25:00,,0829.4,5.00,0.00,29.5,26.9,00.0,38.2,31.2,21.8,0000.0,0008.35,0003.84,0003.55
2022-10-03 19:26:00,,0829.3,5.00,0.00,29.5,27.2,00.0,38.2,31.3,22.3,0000.0,0008.50,0003.89,0003.59
2022-10-03 19:27:00,,0829.3,4.99,0.00,29.5,27.6,00.0,38.2,31.3,22.9,0000.0,0008.66,0003.95,0003.63
2022-10-03 19:28:00,,0829.2,5.00,0.00,29.5,27.8,00.0,38.2,31.3,22.9,0000.0,0009.02,0004.01,0003.66
2022-10-03 19:29:00,,0829.2,5.00,0.00,29.5,28.0,00.0,38.2,31.4,23.4,0000.0,0008.94,0004.09,0003.70
2022-10-03 19:30:00,,0829.3,4.99,0.00,29.5,28.2,00.0,38.2,31.4,22.9,0000.0,0008.83,0004.15,0003.75
2022-10-03 19:31:00,,0829.3,5.01,0.00,29.6,28.3,00.0,38.2,31.4,23.2,0000.0,0008.85,0004.23,0003.80
2022-10-03 19:32:00,,0829.2,5.00,0.00,29.6,28.5,00.0,38.2,31.5,23.0,0000.0,0008.90,0004.30,0003.85
2022-10-03 19:33:00,,0829.2,4.99,0.00,29.6,28.6,00.0,38.2,31.5,23.0,0000.0,0008.98,0004.35,0003.90
2022-10-03 19:34:00,,0829.2,5.01,0.00,29.6,28.7,00.0,38.3,31.6,23.0,0000.0,0009.11,0004.36,0003.91
2022-10-03 19:35:00,,0829.2,5.01,0.00,29.7,28.7,00.0,38.3,31.6,22.8,0000.0,0009.22,0004.40,0003.91
2022-10-03 19:36:00,,0829.2,4.99,0.00,29.7,28.8,00.0,38.3,31.7,22.1,0000.0,0008.71,0004.45,0003.93
2022-10-03 19:37:00,,0829.2,4.99,0.00,29.7,28.9,00.0,38.3,31.7,22.4,0000.0,0008.68,0004.51,0003.96
2022-10-03 19:38:00,,0829.2,5.01,0.00,29.8,28.9,00.0,38.3,31.8,22.4,0000.0,0008.65,0004.54,0004.01
2022-10-03 19:39:00,,0829.2,5.00,0.00,29.8,29.0,00.0,38.4,31.8,21.9,0000.0,0008.37,0004.56,0004.04
2022-10-03 19:40:00,,0829.2,5.00,0.00,29.8,28.3,00.0,38.4,31.8,21.7,0000.0,0008.10,0004.56,0004.03
2022-10-03 19:41:00,,0829.2,4.99,0.00,29.8,26.8,00.0,38.4,31.6,21.7,0000.0,0008.08,0004.54,0004.01
2022-10-03 19:42:00,,0829.1,5.01,0.00,29.7,26.2,00.0,38.3,31.4,22.0,0000.0,0008.06,0004.51,0003.98
2022-10-03 19:43:00,,0829.1,5.00,0.00,29.7,26.4,00.0,38.3,31.4,22.1,0000.0,0008.52,0004.47,0003.94
2022-10-03 19:44:00,,0829.1,5.00,0.00,29.6,26.7,00.0,38.3,31.3,21.6,0000.0,0008.70,0004.43,0003.90
2022-10-03 19:45:00,,0829.1,5.00,0.00,29.5,27.1,00.0,38.2,31.3,21.3,0000.0,0008.58,0004.43,0003.87
2022-10-03 19:46:00,,0829.1,4.99,0.00,29.5,27.4,00.0,38.2,31.3,21.5,0000.0,0008.59,0004.39,0003.85
2022-10-03 19:47:00,,0829.1,5.00,0.00,29.5,27.7,00.0,38.2,31.3,21.1,0000.0,0008.65,0004.35,0003.82
2022-10-03 19:48:00,,0829.0,5.02,0.00,29.5,28.0,00.0,38.2,31.4,21.1,0000.0,0008.80,0004.32,0003.80
2022-10-03 19:49:00,,0829.1,4.99,0.00,29.5,28.1,00.0,38.2,31.4,20.5,0000.0,0009.79,0004.32,0003.75
2022-10-03 19:50:00,,0829.1,5.01,0.00,29.5,28.3,00.0,38.2,31.5,20.4,0000.0,0010.12,0004.27,0003.71
2022-10-03 19:51:00,,0829.1,4.99,0.00,29.6,28.4,00.0,38.2,31.5,20.2,0000.0,0010.03,0004.21,0003.67
2022-10-03 19:52:00,,0829.1,5.00,0.00,29.6,28.5,00.0,38.3,31.5,20.3,0000.0,0009.98,0004.20,0003.67
2022-10-03 19:53:00,,0829.1,5.00,0.00,29.6,28.6,00.0,38.3,31.6,20.0,0000.0,0009.84,0004.15,0003.64
2022-10-03 19:54:00,,0829.1,5.00,0.00,29.7,28.7,00.0,38.3,31.6,19.5,0000.0,0009.30,0004.12,0003.61
2022-10-03 19:55:00,,0829.0,5.01,0.00,29.7,28.8,00.0,38.3,31.7,19.0,0000.0,0009.02,0004.08,0003.56
2022-10-03 19:56:00,,0829.1,5.00,0.00,29.7,28.8,00.0,38.3,31.7,18.9,0000.0,0008.94,0004.02,0003.51
2022-10-03 19:57:00,,0829.1,4.99,0.00,29.8,28.9,00.0,38.4,31.7,19.2,0000.0,0008.78,0003.98,0003.47
2022-10-03 19:58:00,,0829.1,5.01,0.00,29.8,28.9,00.0,38.4,31.8,19.0,0000.0,0008.56,0003.94,0003.44
2022-10-03 19:59:00,,0829.1,4.99,0.00,29.8,29.0,00.0,38.4,31.8,19.2,0000.0,0008.16,0003.90,0003.41
